Location: Stoke Bliss
(52.2667°N, 2.5167°W)
Time: 14:50:07
(UTC+00:00)

YAOGAN 1 - Pass Details

Date: 03 March 2021
Orbit: 618 x 620 km, 97.9° (Epoch: 12 April)

Event Time Altitude Azimuth Distance (km) Brightness Sun altitude
Rises 19:15:25 0° 182° (S) 2,887 6.0 -13.3°
Reaches altitude 10° 19:17:41 10° 190° (S) 1,986 5.2 -13.7°
Maximum altitude 19:21:48 43° 261° (W) 884 3.9 -14.3°
Drops below altitude 10° 19:25:57 10° 334° (NNW) 2,001 5.6 -14.9°
Sets 19:28:15 0° 341° (NNW) 2,913 6.4 -15.3°
